| time (UTC) | temp F | wind direction | speed MPH | gust MPH | rain 1hr in | rain 24hr in | rain mn in | humidity % | barometer mb |
| 20260509122144 | 89 | 0 | 0.0 | 0.0 | 0.00 | 0.00 | 0.00 | 99 | |
| 20260509120128 | 90 | 0 | 0.0 | 0.0 | 0.00 | 0.00 | 0.00 | 10 | |
| 20260509114112 | 89 | 0 | 0.0 | 0.0 | 0.00 | 0.00 | 0.00 | 10 | |
| 20260509112056 | 91 | 0 | 0.0 | 0.0 | 0.00 | 0.00 | 0.00 | 97 | |
| 20260509110040 | 91 | 0 | 0.0 | 0.0 | 0.00 | 0.00 | 0.00 | 96 | |
| 20260509104024 | 91 | 0 | 0.0 | 0.0 | 0.00 | 0.00 | 0.00 | 93 | |
| 20260509102008 | 92 | 0 | 0.0 | 0.0 | 0.00 | 0.00 | 0.00 | 92 | |
| 20260509095952 | 92 | 0 | 0.0 | 0.0 | 0.00 | 0.00 | 0.00 | 91 | |
| 20260509093936 | 92 | 0 | 0.0 | 0.0 | 0.00 | 0.00 | 0.00 | 91 | |
| 20260509091904 | 92 | 0 | 0.0 | 0.0 | 0.00 | 0.00 | 0.00 | 90 | |
| 20260509090737 | 92 | 0 | 0.0 | 0.0 | 0.00 | 0.00 | 0.00 | 91 | |
| 20260509084721 | 92 | 0 | 0.0 | 0.0 | 0.00 | 0.00 | 0.00 | 91 | |
| 20260509082705 | 91 | 0 | 0.0 | 0.0 | 0.00 | 0.00 | 0.00 | 94 | |
| 20260509080645 | 91 | 0 | 0.0 | 0.0 | 0.00 | 0.00 | 0.00 | 94 | |
| 20260509074625 | 91 | 0 | 0.0 | 0.0 | 0.00 | 0.00 | 0.00 | 95 | |
| 20260509072609 | 91 | 0 | 0.0 | 0.0 | 0.00 | 0.00 | 0.00 | 95 | |
| 20260509070557 | 90 | 0 | 0.0 | 0.0 | 0.00 | 0.00 | 0.00 | 96 | |
| 20260509064541 | 90 | 0 | 0.0 | 0.0 | 0.00 | 0.00 | 0.00 | 97 | |
| 20260509062521 | 90 | 0 | 0.0 | 0.0 | 0.00 | 0.00 | 0.00 | 98 | |
| 20260509060505 | 89 | 0 | 0.0 | 0.0 | 0.00 | 0.00 | 0.00 | 98 | |
| 20260509054449 | 89 | 0 | 0.0 | 0.0 | 0.00 | 0.00 | 0.00 | 98 | |
| 20260509052433 | 89 | 0 | 0.0 | 0.0 | 0.00 | 0.00 | 0.00 | 97 | |
| 20260509050413 | 89 | 0 | 0.0 | 0.0 | 0.00 | 0.00 | 0.00 | 10 | |
| 20260509044353 | 88 | 0 | 0.0 | 0.0 | 0.00 | 0.00 | 0.00 | 10 | |
| 20260509042333 | 86 | 0 | 0.0 | 0.0 | 0.00 | 0.00 | 0.00 | 10 | |
| 20260509040313 | 86 | 0 | 0.0 | 0.0 | 0.00 | 0.00 | 0.00 | 10 | |
| 20260509034253 | 85 | 0 | 0.0 | 0.0 | 0.00 | 0.00 | 0.00 | 10 | |
| 20260509032237 | 85 | 0 | 0.0 | 0.0 | 0.00 | 0.00 | 0.00 | 10 | |
| 20260509030221 | 85 | 0 | 0.0 | 0.0 | 0.00 | 0.00 | 0.00 | 10 | |
| 20260509024153 | 84 | 0 | 0.0 | 0.0 | 0.00 | 0.00 | 0.00 | 10 | |
| 20260509023950 | 84 | 0 | 0.0 | 0.0 | 0.00 | 0.00 | 0.00 | 10 | |
| 20260509021930 | 83 | 0 | 0.0 | 0.0 | 0.00 | 0.00 | 0.00 | 10 | |
| 20260509015906 | 83 | 0 | 0.0 | 0.0 | 0.00 | 0.00 | 0.00 | 10 | |
| 20260509013846 | 82 | 0 | 0.0 | 0.0 | 0.00 | 0.00 | 0.00 | 10 | |
| 20260509011826 | 82 | 0 | 0.0 | 0.0 | 0.00 | 0.00 | 0.00 | 10 | |
| 20260509005810 | 81 | 0 | 0.0 | 0.0 | 0.00 | 0.00 | 0.00 | 10 | |
| 20260509003754 | 81 | 0 | 0.0 | 0.0 | 0.00 | 0.00 | 0.00 | 10 | |
| 20260509001738 | 80 | 0 | 0.0 | 0.0 | 0.00 | 0.00 | 0.00 | 10 | |
| 20260508235722 | 80 | 0 | 0.0 | 0.0 | 0.00 | 0.00 | 0.00 | 10 | |
| 20260508233706 | 81 | 0 | 0.0 | 0.0 | 0.00 | 0.00 | 0.00 | 10 | |
| 20260508231650 | 77 | 0 | 0.0 | 0.0 | 0.00 | 0.00 | 0.00 | 10 | |
| 20260508225634 | 80 | 0 | 0.0 | 0.0 | 0.00 | 0.00 | 0.00 | 10 | |
| 20260508223618 | 84 | 0 | 0.0 | 0.0 | 0.00 | 0.00 | 0.00 | 10 | |
| 20260508221602 | 80 | 0 | 0.0 | 0.0 | 0.00 | 0.00 | 0.00 | 10 | |
| 20260508215546 | 80 | 0 | 0.0 | 0.0 | 0.00 | 0.00 | 0.00 | 10 | |
| 20260508213530 | 81 | 0 | 0.0 | 0.0 | 0.00 | 0.00 | 0.00 | 10 | |
| 20260508211513 | 81 | 0 | 0.0 | 0.0 | 0.00 | 0.00 | 0.00 | 10 | |
| 20260508205457 | 81 | 0 | 0.0 | 0.0 | 0.00 | 0.00 | 0.00 | 10 | |
| 20260508203441 | 81 | 0 | 0.0 | 0.0 | 0.00 | 0.00 | 0.00 | 10 | |
| 20260508201421 | 81 | 0 | 0.0 | 0.0 | 0.00 | 0.00 | 0.00 | 10 | |
| 20260508195405 | 81 | 0 | 0.0 | 0.0 | 0.00 | 0.00 | 0.00 | 10 | |
| 20260508193349 | 81 | 0 | 0.0 | 0.0 | 0.00 | 0.00 | 0.00 | 10 | |
| 20260508191333 | 80 | 0 | 0.0 | 0.0 | 0.00 | 0.00 | 0.00 | 10 | |
| 20260508185313 | 81 | 0 | 0.0 | 0.0 | 0.00 | 0.00 | 0.00 | 10 | |
| 20260508183257 | 80 | 0 | 0.0 | 0.0 | 0.00 | 0.00 | 0.00 | 10 | |
| 20260508181241 | 80 | 0 | 0.0 | 0.0 | 0.00 | 0.00 | 0.00 | 10 | |
| 20260508175225 | 81 | 0 | 0.0 | 0.0 | 0.00 | 0.00 | 0.00 | 10 | |
| 20260508173201 | 80 | 0 | 0.0 | 0.0 | 0.00 | 0.00 | 0.00 | 10 | |
| 20260508171145 | 81 | 0 | 0.0 | 0.0 | 0.00 | 0.00 | 0.00 | 10 | |
| 20260508165129 | 80 | 0 | 0.0 | 0.0 | 0.00 | 0.00 | 0.00 | 10 | |
| 20260508163113 | 81 | 0 | 0.0 | 0.0 | 0.00 | 0.00 | 0.00 | 10 | |
| 20260508161057 | 87 | 0 | 0.0 | 0.0 | 0.00 | 0.00 | 0.00 | 10 | |
| 20260508160453 | 83 | 0 | 0.0 | 0.0 | 0.00 | 0.00 | 0.00 | 10 | |
| 20260508154437 | 81 | 0 | 0.0 | 0.0 | 0.00 | 0.00 | 0.00 | 10 | |
| 20260508152421 | 83 | 0 | 0.0 | 0.0 | 0.00 | 0.00 | 0.00 | 10 | |
| 20260508150405 | 82 | 0 | 0.0 | 0.0 | 0.00 | 0.00 | 0.00 | 10 | |
| 20260508144349 | 82 | 0 | 0.0 | 0.0 | 0.00 | 0.00 | 0.00 | 10 | |
| 20260508142333 | 82 | 0 | 0.0 | 0.0 | 0.00 | 0.00 | 0.00 | 10 | |
| 20260508140317 | 81 | 0 | 0.0 | 0.0 | 0.00 | 0.00 | 0.00 | 10 | |
| 20260508134301 | 81 | 0 | 0.0 | 0.0 | 0.00 | 0.00 | 0.00 | 10 | |
| 20260508132245 | 83 | 0 | 0.0 | 0.0 | 0.00 | 0.00 | 0.00 | 10 | |
| 20260508130228 | 83 | 0 | 0.0 | 0.0 | 0.00 | 0.00 | 0.00 | 10 | |
| 20260508124212 | 81 | 0 | 0.0 | 0.0 | 0.00 | 0.00 | 0.00 | 10 |